Regional Weather Roundup
Issued by NWS

Home | Current Version | Previous Version | Text Only | Print | Product List | Glossary On
Versions: 1 2 3 4 5 6 7 8 9 10 11 12 13 14 15 16 17 18 19 20 21 22 23 24 25 26 27 28 29 30 31 32 33 34 35 36 37 38 39 40 41 42 43 44 45 46 47 48 49 50
000
ASUS46 KSTO 200315
RWRCA

NORTHERN AND CENTRAL CA REGIONAL WEATHER ROUNDUP
NATIONAL WEATHER SERVICE SACRAMENTO CA
800 PM PDT FRI JUL 19 2019

NOTE: FAIR INDICATES FEW OR NO CLOUDS BELOW 12,000 FEET WITH NO
SIGNIFICANT WEATHER AND/OR OBSTRUCTIONS TO VISIBILITY.

CAZ001-003-200400-
NORTHWEST AREA

CITY           SKY/WX    TMP DP  RH WIND       PRES   REMARKS
CRESCENT CITY  CLEAR     56  50  80 N18G26    29.89S
UKIAH          CLEAR     82  56  40 N6        29.82S
$$

CAZ006-505>513-200400-
BAY AREA

CITY           SKY/WX    TMP DP  RH WIND       PRES   REMARKS
SANTA ROSA     CLEAR     61  55  81 S9        29.89S
SAN RAFAEL     N/A      MM  MM  MM MISG
NAPA           CLEAR     65  58  78 S14       29.86S
CONCORD        CLEAR     67  52  58 W10       29.86R
OAKLAND CITY   N/A       68  MM  MM MISG
OAKLAND        PTCLDY    66  56  70 NW13      29.89R
SAN FRAN CITY  N/A       63  MM  70 MISG
SAN FRAN ARPT  PTCLDY    67  53  61 W8        29.87S
LIVERMORE      CLEAR     69  54  58 W15       29.84R
HAYWARD        PTCLDY    66  55  67 NW14      29.87R
REDWOOD CITY   N/A       71  MM  57 MISG
MOFFETT ARPT   CLEAR     70  58  65 NW13      29.87R
SAN JOSE ARPT  PTCLDY    71  58  63 NW13      29.86R
$$
CAZ034-037-514>518-200400-
CENTRAL COAST

CITY           SKY/WX    TMP DP  RH WIND       PRES   REMARKS
WATSONVILLE    CLOUDY    61  55  81 W7        29.93S
SALINAS        CLOUDY    63  55  75 NW13      29.91S
MONTEREY       PTCLDY    64  53  67 SW8       29.91S
SAN LUIS OBISP CLEAR     61  54  77 NW10      29.93S
SANTA MARIA    CLEAR     62  56  80 NW10      29.94S
$$
CAZ015-016-200400-
NORTHERN SACRAMENTO VALLEY

CITY           SKY/WX    TMP DP  RH WIND       PRES   REMARKS
REDDING        CLEAR     91  41  17 S10       29.76R
RED BLUFF      CLEAR     89  50  26 S9        29.77S
OROVILLE       CLEAR     87  56  34 S8        29.79R
$$
CAZ016>018-200400-
SOUTHERN SACRAMENTO VALLEY

CITY           SKY/WX    TMP DP  RH WIND       PRES   REMARKS
AUBURN         CLEAR     81  52  36 S5        29.87S
BEALE AFB      CLEAR     82  51  33 S7        29.78R
LINCOLN        FAIR      82  50  32 CALM      29.78S
MARYSVILLE     CLEAR     83  51  33 S10       29.78S
PLACERVILLE    FAIR      75  48  38 W3        29.95R
SAC INTL ARPT  CLEAR     78  57  48 S16       29.78S
MATHER AIRPORT CLEAR     81  48  32 SW14      29.79S
DOWNTOWN SAC   N/A       79  MM  MM MISG
SAC EXEC ARPT  CLEAR     75  55  49 SW14G21   29.80S
VACAVILLE      CLEAR     76  56  49 SW12G20   29.80S
TRAVIS AFB     CLEAR     69  55  60 SW22      29.81S
$$
CAZ019>021-200400-
SAN JOAQUIN VALLEY

CITY           SKY/WX    TMP DP  RH WIND       PRES   REMARKS
STOCKTON       CLEAR     81  57  43 NW14      29.80R
MODESTO        CLEAR     85  58  39 NW9       29.78S
MERCED         CLEAR     86  61  42 W6        29.79R
LEMOORE        CLEAR     87  57  35 N10       29.78S
FRESNO         PTCLDY    91  54  28 NW12      29.78S
HANFORD        CLEAR     90  53  28 NW7       29.78R
PORTERVILLE    CLEAR     90  53  28 N7        29.79S
BAKERSFIELD    CLEAR     87  45  23 NW15      29.78S
$$
CAZ011-012-071-200400-
NORTHERN MOUNTAINS

CITY           SKY/WX    TMP DP  RH WIND       PRES   REMARKS
YREKA          CLEAR     81  37  20 N16       29.90R
MOUNT SHASTA   CLOUDY    76  53  44 CALM      29.94R
ALTURAS        CLEAR     80  40  23 W9        29.96R
$$
CAZ011-012-071-200400-
SIERRA NEVADA MTNS

CITY           SKY/WX    TMP DP  RH WIND       PRES   REMARKS
BLUE CANYON    CLEAR     67  51  56 SW5       30.10R
TRUCKEE        CLEAR     70  46  43 W12       30.10R
TAHOE VLY ARPT CLEAR     69  51  52 S10       30.10S
MAMMOTH LAKES  FAIR      70  43  36 NW8       30.11S
$$



USA.gov is the U.S. government's official web portal to all federal, state and local government web resources and services.